Flag for China Weather past 2 weeks in Xiamen, Fujian, China

Now
86 °F

Scattered clouds.


Feels Like: 97 °F
Forecast: 79 / 89 °F
Wind: 3 mph from South

Location: Xiamen Airport

Current Time: Sep 2, 2015 at 11:25:54 AM

Latest Report: Sep 2, 2015 at 11:00 AM


Visibility: N/A

Pressure: 29.92 "Hg

Humidity: 75%

Dew point: 77 °F

Location of XiamenLocation

Historic Weather in Xiamen — Graph

°F

Xiamen temperature yesterday

Maximum temperature yesterday: 82 °F (at 11:00 AM)
Minimum temperature yesterday: 75 °F (at 4:00 AM)
Average temperature yesterday: 79 °F

Past Weeks' High & Low Weather Summary

 TemperatureHumidityPressure
High95 °F (Aug 21, 2:00 PM)100% (Aug 18, 10:00 PM)29.92 "Hg (Aug 18, 10:00 PM)
Low73 °F (Aug 31, 3:00 AM)47% (Aug 21, 2:00 PM)29.42 "Hg (Aug 22, 4:00 PM)
Average82 °F84%29.70 "Hg
* Reported Aug 18 10:00 AM — Sep 2 10:00 AM, Xiamen, Weather by CustomWeather, © 2015

Note: Actual official high and low records may vary slightly from our data, if they occured in-between our weather recording intervals... More about our weather records

Advertising

Xiamen weather history for previous 24 hours

 ConditionsComfort  
Time TempWeatherWind HumidityBarometerVisibility
10:00 AM
Wed, Sep 2
82 °FScattered clouds.3 mph79%29.92 "HgN/A
9:00 AM79 °FLight rain. Scattered clouds.1 mph94%29.89 "Hg4 mi
8:00 AM79 °FFog.3 mph94%29.89 "Hg3 mi
7:00 AM77 °FPassing clouds.1 mph94%29.86 "Hg6 mi
6:00 AM75 °FPartly sunny.1 mph100%29.86 "Hg5 mi
5:00 AM77 °FFog.3 mph100%29.89 "Hg3 mi
4:00 AM77 °FFog.3 mph100%29.86 "Hg3 mi
3:00 AM77 °FPartly cloudy.3 mph100%29.86 "Hg4 mi
2:00 AM77 °FPassing clouds.1 mph100%29.86 "Hg4 mi
1:00 AM79 °FFog.1 mph100%29.86 "Hg3 mi
12:00 AM79 °FFog.1 mph100%29.86 "Hg3 mi
11:00 PM
Tue, Sep 1
79 °FFog.No wind100%29.89 "Hg3 mi
10:00 PM79 °FFog.No wind100%29.86 "Hg3 mi
9:00 PM79 °FSprinkles. Passing clouds.1 mph100%29.86 "Hg4 mi
8:00 PM79 °FSprinkles. Passing clouds.1 mph100%29.83 "Hg5 mi
7:00 PM79 °FSprinkles. Passing clouds.No wind100%29.80 "HgN/A
6:00 PM79 °FSprinkles. Passing clouds.1 mph100%29.80 "HgN/A
5:00 PM81 °FLight rain. Broken clouds.3 mph94%29.77 "HgN/A
4:00 PM81 °FMore clouds than sun.1 mph94%29.77 "HgN/A
3:00 PM79 °FLight rain. Broken clouds.3 mph100%29.77 "HgN/A
2:00 PM81 °FSprinkles. More clouds than sun.10 mph94%29.80 "HgN/A
1:00 PM82 °FBroken clouds.3 mph89%29.80 "Hg5 mi
12:00 PM82 °FMore clouds than sun.3 mph89%29.83 "Hg5 mi
11:00 AM82 °FPartly sunny.1 mph89%29.83 "Hg4 mi
Weather by CustomWeather, © 2015

See weather overviewHow to use our weather pages